Zurück zum Katalog

DELTA 1 R/B(1)

AktivUNKNOWN
NORAD 15392·ROCKET BODY·🇺🇸 United States

Gestartet Nov 14, 1984 von Cape Canaveral Space Force Station

Loading…

Nächste Überflüge (nächste 24 Stunden)

TLE

AktuellSource: Space-Track

Epoche: Sep 14, 2026, 14:16 UTC

1 15392U 84115B   26257.59496396  .00000290  00000-0  11388-3 0  9997
2 15392  21.5012 358.1822 1032013 269.6863  78.5441 12.46123570887599

Verfolge DELTA 1 R/B(1) in Echtzeit mit AllMySat

Download on the App Store